Time,TemperatureF,DewpointF,PressureIn,WindDirection,WindDirectionDegrees,WindSpeedMPH,WindSpeedGustMPH,Humidity,HourlyPrecipIn,Conditions,Clouds,dailyrainin,SoftwareType,DateUTC
2013-08-09 00:02:00,72.0,64.0,30.12,North,0,0.0,-999.0,78,-99.99,,,-99.99,,2013-08-09 05:02:00,
2013-08-09 00:11:00,72.0,64.0,30.13,North,0,0.0,-999.0,78,-99.99,,,-99.99,,2013-08-09 05:11:00,
2013-08-09 00:22:00,72.0,64.0,30.13,North,0,0.0,-999.0,78,-99.99,,,-99.99,,2013-08-09 05:22:00,
2013-08-09 00:32:00,72.0,64.0,30.13,North,0,0.0,-999.0,78,-99.99,,,-99.99,,2013-08-09 05:32:00,
2013-08-09 00:43:00,72.0,64.0,30.12,North,0,0.0,-999.0,78,-99.99,,,-99.99,,2013-08-09 05:43:00,
2013-08-09 00:52:00,72.0,64.0,30.12,North,0,0.0,-999.0,78,-99.99,,,-99.99,,2013-08-09 05:52:00,
2013-08-09 01:01:00,72.0,64.0,30.12,North,0,0.0,-999.0,78,-99.99,,,-99.99,,2013-08-09 06:01:00,
2013-08-09 01:11:00,72.0,66.0,30.12,North,0,0.0,-999.0,83,-99.99,,,-99.99,,2013-08-09 06:11:00,
2013-08-09 01:21:00,72.0,64.0,30.12,North,0,0.0,-999.0,78,-99.99,,,-99.99,,2013-08-09 06:21:00,
2013-08-09 01:32:00,72.0,64.0,30.12,North,0,0.0,-999.0,78,-99.99,,,-99.99,,2013-08-09 06:32:00,
2013-08-09 01:43:00,72.0,64.0,30.12,North,0,0.0,-999.0,78,-99.99,,,-99.99,,2013-08-09 06:43:00,
2013-08-09 01:52:00,72.0,64.0,30.12,North,0,0.0,-999.0,78,-99.99,,,-99.99,,2013-08-09 06:52:00,
2013-08-09 02:01:00,72.0,64.0,30.12,North,0,0.0,-999.0,78,-99.99,,,-99.99,,2013-08-09 07:01:00,
2013-08-09 02:12:00,72.0,64.0,30.12,North,0,0.0,-999.0,78,-99.99,,,-99.99,,2013-08-09 07:12:00,
2013-08-09 02:22:00,72.0,64.0,30.12,North,0,0.0,-999.0,78,-99.99,,,-99.99,,2013-08-09 07:22:00,
2013-08-09 02:33:00,72.0,64.0,30.11,North,0,0.0,-999.0,78,-99.99,,,-99.99,,2013-08-09 07:33:00,
2013-08-09 02:43:00,72.0,64.0,30.11,North,0,0.0,-999.0,78,-99.99,,,-99.99,,2013-08-09 07:43:00,
2013-08-09 02:52:00,72.0,64.0,30.10,North,0,0.0,-999.0,78,-99.99,,,-99.99,,2013-08-09 07:52:00,
2013-08-09 03:02:00,70.0,64.0,30.10,North,0,0.0,-999.0,82,-99.99,,,-99.99,,2013-08-09 08:02:00,
2013-08-09 03:12:00,70.0,64.0,30.10,North,0,0.0,-999.0,82,-99.99,,,-99.99,,2013-08-09 08:12:00,
2013-08-09 03:22:00,70.0,64.0,30.11,North,0,0.0,-999.0,82,-99.99,,,-99.99,,2013-08-09 08:22:00,
2013-08-09 03:32:00,70.0,64.0,30.11,North,0,0.0,-999.0,82,-99.99,,,-99.99,,2013-08-09 08:32:00,
2013-08-09 03:43:00,70.0,64.0,30.11,North,0,0.0,-999.0,82,-99.99,,,-99.99,,2013-08-09 08:43:00,
2013-08-09 03:53:00,70.0,64.0,30.12,North,0,0.0,-999.0,82,-99.99,,,-99.99,,2013-08-09 08:53:00,
2013-08-09 04:02:00,70.0,64.0,30.12,North,0,0.0,-999.0,82,-99.99,,,-99.99,,2013-08-09 09:02:00,
2013-08-09 04:12:00,70.0,64.0,30.12,North,0,0.0,-999.0,82,-99.99,,,-99.99,,2013-08-09 09:12:00,
2013-08-09 04:22:00,70.0,64.0,30.12,North,0,0.0,-999.0,82,-99.99,,,-99.99,,2013-08-09 09:22:00,
2013-08-09 04:32:00,70.0,64.0,30.12,North,0,0.0,-999.0,82,-99.99,,,-99.99,,2013-08-09 09:32:00,
2013-08-09 04:43:00,70.0,64.0,30.12,North,0,0.0,-999.0,82,-99.99,,,-99.99,,2013-08-09 09:43:00,
2013-08-09 04:52:00,70.0,64.0,30.12,North,0,0.0,-999.0,82,-99.99,,,-99.99,,2013-08-09 09:52:00,
2013-08-09 05:01:00,70.0,64.0,30.12,North,0,0.0,-999.0,82,-99.99,,,-99.99,,2013-08-09 10:01:00,
2013-08-09 05:12:00,70.0,64.0,30.12,North,0,0.0,-999.0,82,-99.99,,,-99.99,,2013-08-09 10:12:00,
2013-08-09 05:22:00,70.0,64.0,30.12,SE,128,1.0,-999.0,82,-99.99,,,-99.99,,2013-08-09 10:22:00,
2013-08-09 05:32:00,70.0,64.0,30.13,North,0,0.0,-999.0,82,-99.99,,,-99.99,,2013-08-09 10:32:00,
2013-08-09 05:43:00,70.0,64.0,30.13,North,0,0.0,-999.0,82,-99.99,,,-99.99,,2013-08-09 10:43:00,
2013-08-09 05:53:00,70.0,64.0,30.13,North,0,0.0,-999.0,82,-99.99,,,-99.99,,2013-08-09 10:53:00,
2013-08-09 06:02:00,70.0,64.0,30.13,North,0,0.0,-999.0,82,-99.99,,,-99.99,,2013-08-09 11:02:00,
2013-08-09 06:11:00,70.0,64.0,30.14,North,0,0.0,-999.0,82,-99.99,,,-99.99,,2013-08-09 11:11:00,
2013-08-09 06:22:00,68.0,63.0,30.14,North,0,0.0,-999.0,82,-99.99,,,-99.99,,2013-08-09 11:22:00,
2013-08-09 06:33:00,68.0,63.0,30.13,North,0,0.0,-999.0,82,-99.99,,,-99.99,,2013-08-09 11:33:00,
2013-08-09 06:43:00,68.0,64.0,30.13,North,0,0.0,-999.0,88,-99.99,,,-99.99,,2013-08-09 11:43:00,
2013-08-09 06:53:00,68.0,64.0,30.13,North,0,0.0,-999.0,88,-99.99,,,-99.99,,2013-08-09 11:53:00,
2013-08-09 07:02:00,68.0,64.0,30.13,North,0,0.0,-999.0,88,-99.99,,,-99.99,,2013-08-09 12:02:00,
2013-08-09 07:12:00,70.0,64.0,30.13,ENE,70,0.0,-999.0,82,-99.99,,,-99.99,,2013-08-09 12:12:00,
2013-08-09 07:32:00,70.0,64.0,30.13,East,79,1.0,-999.0,82,-99.99,,,-99.99,,2013-08-09 12:32:00,
2013-08-09 07:43:00,70.0,66.0,30.14,NE,52,1.0,-999.0,88,-99.99,,,-99.99,,2013-08-09 12:43:00,
2013-08-09 08:01:00,72.0,66.0,30.15,NE,50,1.0,-999.0,83,-99.99,,,-99.99,,2013-08-09 13:01:00,
2013-08-09 08:12:00,72.0,66.0,30.14,ENE,64,1.0,-999.0,83,-99.99,,,-99.99,,2013-08-09 13:12:00,
2013-08-09 08:23:00,72.0,66.0,30.14,ENE,76,1.0,-999.0,83,-99.99,,,-99.99,,2013-08-09 13:23:00,
2013-08-09 08:32:00,73.0,66.0,30.14,NE,37,2.0,-999.0,78,-99.99,,,-99.99,,2013-08-09 13:32:00,
2013-08-09 08:43:00,73.0,66.0,30.15,NE,37,3.0,-999.0,78,-99.99,,,-99.99,,2013-08-09 13:43:00,
2013-08-09 08:52:00,73.0,66.0,30.15,NE,43,3.0,-999.0,78,-99.99,,,-99.99,,2013-08-09 13:52:00,
2013-08-09 09:02:00,75.0,68.0,30.15,ENE,78,0.0,-999.0,78,-99.99,,,-99.99,,2013-08-09 14:02:00,
2013-08-09 09:11:00,75.0,68.0,30.15,NE,49,2.0,-999.0,78,-99.99,,,-99.99,,2013-08-09 14:11:00,
2013-08-09 09:22:00,75.0,68.0,30.15,NE,53,1.0,-999.0,78,-99.99,,,-99.99,,2013-08-09 14:22:00,
2013-08-09 09:43:00,77.0,66.0,30.15,NE,46,1.0,-999.0,69,-99.99,,,-99.99,,2013-08-09 14:43:00,
2013-08-09 10:02:00,79.0,66.0,30.16,SW,231,1.0,-999.0,65,-99.99,,,-99.99,,2013-08-09 15:02:00,
2013-08-09 10:11:00,79.0,66.0,30.16,ESE,111,0.0,-999.0,65,-99.99,,,-99.99,,2013-08-09 15:11:00,
2013-08-09 10:22:00,79.0,66.0,30.17,North,353,2.0,-999.0,65,-99.99,,,-99.99,,2013-08-09 15:22:00,
2013-08-09 10:33:00,81.0,66.0,30.16,WSW,256,1.0,-999.0,61,-99.99,,,-99.99,,2013-08-09 15:33:00,
2013-08-09 10:44:00,79.0,66.0,30.16,NE,53,1.0,-999.0,65,-99.99,,,-99.99,,2013-08-09 15:44:00,
2013-08-09 10:53:00,79.0,66.0,30.16,NE,41,5.0,-999.0,65,-99.99,,,-99.99,,2013-08-09 15:53:00,
2013-08-09 11:01:00,81.0,66.0,30.16,SE,135,0.0,-999.0,61,-99.99,,,-99.99,,2013-08-09 16:01:00,
2013-08-09 11:11:00,81.0,66.0,30.16,ESE,112,1.0,-999.0,61,-99.99,,,-99.99,,2013-08-09 16:11:00,
2013-08-09 11:22:00,81.0,66.0,30.16,East,84,1.0,-999.0,61,-99.99,,,-99.99,,2013-08-09 16:22:00,
2013-08-09 11:32:00,81.0,66.0,30.16,NW,313,3.0,-999.0,61,-99.99,,,-99.99,,2013-08-09 16:32:00,
2013-08-09 11:43:00,81.0,66.0,30.16,SSE,166,2.0,-999.0,61,-99.99,,,-99.99,,2013-08-09 16:43:00,
2013-08-09 11:53:00,81.0,64.0,30.16,North,5,3.0,-999.0,57,-99.99,,,-99.99,,2013-08-09 16:53:00,
2013-08-09 12:11:00,81.0,64.0,30.15,NE,35,2.0,-999.0,57,-99.99,,,-99.99,,2013-08-09 17:11:00,
2013-08-09 12:22:00,81.0,64.0,30.15,East,96,1.0,-999.0,57,-99.99,,,-99.99,,2013-08-09 17:22:00,
2013-08-09 12:33:00,82.0,66.0,30.15,WNW,286,2.0,-999.0,58,-99.99,,,-99.99,,2013-08-09 17:33:00,
2013-08-09 12:43:00,82.0,64.0,30.16,ENE,58,2.0,-999.0,54,-99.99,,,-99.99,,2013-08-09 17:43:00,
2013-08-09 13:01:00,81.0,64.0,30.15,NE,49,2.0,-999.0,57,-99.99,,,-99.99,,2013-08-09 18:01:00,
2013-08-09 13:11:00,82.0,66.0,30.15,East,101,0.0,-999.0,58,-99.99,,,-99.99,,2013-08-09 18:11:00,
2013-08-09 13:22:00,82.0,64.0,30.15,North,8,3.0,-999.0,54,-99.99,,,-99.99,,2013-08-09 18:22:00,
2013-08-09 13:32:00,82.0,64.0,30.16,NNE,24,2.0,-999.0,54,-99.99,,,-99.99,,2013-08-09 18:32:00,
2013-08-09 13:43:00,82.0,64.0,30.16,NE,51,3.0,-999.0,54,-99.99,,,-99.99,,2013-08-09 18:43:00,
2013-08-09 13:53:00,82.0,63.0,30.15,ENE,68,5.0,-999.0,51,-99.99,,,-99.99,,2013-08-09 18:53:00,
2013-08-09 14:02:00,82.0,64.0,30.15,NE,47,2.0,-999.0,54,-99.99,,,-99.99,,2013-08-09 19:02:00,
2013-08-09 14:11:00,82.0,64.0,30.15,North,0,0.0,-999.0,54,-99.99,,,-99.99,,2013-08-09 19:11:00,
2013-08-09 14:22:00,84.0,66.0,30.15,West,271,1.0,-999.0,54,-99.99,,,-99.99,,2013-08-09 19:22:00,
2013-08-09 14:32:00,84.0,64.0,30.15,WSW,243,3.0,-999.0,51,-99.99,,,-99.99,,2013-08-09 19:32:00,
2013-08-09 14:43:00,84.0,64.0,30.15,NE,36,3.0,-999.0,51,-99.99,,,-99.99,,2013-08-09 19:43:00,
2013-08-09 14:52:00,82.0,66.0,30.15,NE,34,6.0,-999.0,58,-99.99,,,-99.99,,2013-08-09 19:52:00,
2013-08-09 15:02:00,84.0,66.0,30.15,WNW,297,2.0,-999.0,54,-99.99,,,-99.99,,2013-08-09 20:02:00,
2013-08-09 15:11:00,82.0,66.0,30.15,East,84,2.0,-999.0,58,-99.99,,,-99.99,,2013-08-09 20:11:00,
2013-08-09 15:32:00,82.0,66.0,30.15,SW,218,2.0,-999.0,58,-99.99,,,-99.99,,2013-08-09 20:32:00,
2013-08-09 15:43:00,84.0,66.0,30.14,NNW,330,3.0,-999.0,54,-99.99,,,-99.99,,2013-08-09 20:43:00,
2013-08-09 15:52:00,84.0,64.0,30.14,South,183,3.0,-999.0,51,-99.99,,,-99.99,,2013-08-09 20:52:00,
2013-08-09 16:01:00,84.0,64.0,30.14,SW,236,3.0,-999.0,51,-99.99,,,-99.99,,2013-08-09 21:01:00,
2013-08-09 16:12:00,84.0,64.0,30.14,WSW,249,2.0,-999.0,51,-99.99,,,-99.99,,2013-08-09 21:12:00,
2013-08-09 16:22:00,84.0,64.0,30.14,ENE,77,1.0,-999.0,51,-99.99,,,-99.99,,2013-08-09 21:22:00,
2013-08-09 16:33:00,84.0,64.0,30.14,ENE,63,1.0,-999.0,51,-99.99,,,-99.99,,2013-08-09 21:33:00,
2013-08-09 16:43:00,84.0,64.0,30.14,East,101,2.0,-999.0,51,-99.99,,,-99.99,,2013-08-09 21:43:00,
2013-08-09 16:52:00,84.0,64.0,30.14,SW,223,3.0,-999.0,51,-99.99,,,-99.99,,2013-08-09 21:52:00,
2013-08-09 17:01:00,84.0,64.0,30.14,WNW,285,2.0,-999.0,51,-99.99,,,-99.99,,2013-08-09 22:01:00,
2013-08-09 17:11:00,84.0,64.0,30.13,West,264,2.0,-999.0,51,-99.99,,,-99.99,,2013-08-09 22:11:00,
2013-08-09 17:22:00,84.0,64.0,30.13,NW,314,2.0,-999.0,51,-99.99,,,-99.99,,2013-08-09 22:22:00,
2013-08-09 17:32:00,84.0,64.0,30.13,NE,43,1.0,-999.0,51,-99.99,,,-99.99,,2013-08-09 22:32:00,
2013-08-09 17:42:00,84.0,64.0,30.13,WSW,257,3.0,-999.0,51,-99.99,,,-99.99,,2013-08-09 22:42:00,
2013-08-09 17:52:00,82.0,64.0,30.14,NNE,31,2.0,-999.0,54,-99.99,,,-99.99,,2013-08-09 22:52:00,
2013-08-09 18:01:00,81.0,66.0,30.14,NE,36,3.0,-999.0,61,-99.99,,,-99.99,,2013-08-09 23:01:00,
2013-08-09 18:11:00,79.0,66.0,30.15,NE,34,5.0,-999.0,65,-99.99,,,-99.99,,2013-08-09 23:11:00,
2013-08-09 18:22:00,77.0,66.0,30.15,NE,35,2.0,-999.0,69,-99.99,,,-99.99,,2013-08-09 23:22:00,
2013-08-09 18:32:00,75.0,68.0,30.15,ENE,70,0.0,-999.0,78,-99.99,,,-99.99,,2013-08-09 23:32:00,
2013-08-09 18:43:00,75.0,68.0,30.15,NNE,16,2.0,-999.0,78,-99.99,,,-99.99,,2013-08-09 23:43:00,
2013-08-09 18:52:00,75.0,68.0,30.15,NE,43,1.0,-999.0,78,-99.99,,,-99.99,,2013-08-09 23:52:00,
2013-08-09 19:01:00,75.0,70.0,30.15,NNW,338,2.0,-999.0,83,-99.99,,,-99.99,,2013-08-10 00:01:00,
2013-08-09 19:11:00,75.0,70.0,30.15,North,356,2.0,-999.0,83,-99.99,,,-99.99,,2013-08-10 00:11:00,
2013-08-09 19:22:00,75.0,70.0,30.15,North,0,0.0,-999.0,83,-99.99,,,-99.99,,2013-08-10 00:22:00,
2013-08-09 19:33:00,75.0,70.0,30.16,North,0,0.0,-999.0,83,-99.99,,,-99.99,,2013-08-10 00:33:00,
2013-08-09 19:43:00,75.0,70.0,30.16,WNW,285,1.0,-999.0,83,-99.99,,,-99.99,,2013-08-10 00:43:00,
2013-08-09 19:52:00,75.0,70.0,30.16,WNW,286,1.0,-999.0,83,-99.99,,,-99.99,,2013-08-10 00:52:00,
2013-08-09 20:01:00,75.0,70.0,30.16,North,0,0.0,-999.0,83,-99.99,,,-99.99,,2013-08-10 01:01:00,
2013-08-09 20:11:00,75.0,70.0,30.16,NE,49,0.0,-999.0,83,-99.99,,,-99.99,,2013-08-10 01:11:00,
2013-08-09 20:22:00,75.0,70.0,30.17,East,81,0.0,-999.0,83,-99.99,,,-99.99,,2013-08-10 01:22:00,
2013-08-09 20:32:00,75.0,70.0,30.17,ENE,73,0.0,-999.0,83,-99.99,,,-99.99,,2013-08-10 01:32:00,
2013-08-09 20:42:00,75.0,70.0,30.17,NE,41,3.0,-999.0,83,-99.99,,,-99.99,,2013-08-10 01:42:00,
2013-08-09 20:52:00,75.0,70.0,30.18,North,0,0.0,-999.0,83,-99.99,,,-99.99,,2013-08-10 01:52:00,
2013-08-09 21:03:00,73.0,68.0,30.18,NNE,29,2.0,-999.0,83,-99.99,,,-99.99,,2013-08-10 02:03:00,
2013-08-09 21:11:00,73.0,68.0,30.18,NNE,20,1.0,-999.0,83,-99.99,,,-99.99,,2013-08-10 02:11:00,
2013-08-09 21:21:00,73.0,68.0,30.19,NNE,30,2.0,-999.0,83,-99.99,,,-99.99,,2013-08-10 02:21:00,
2013-08-09 21:32:00,73.0,68.0,30.19,ENE,78,1.0,-999.0,83,-99.99,,,-99.99,,2013-08-10 02:32:00,
2013-08-09 21:42:00,73.0,68.0,30.20,NE,51,1.0,-999.0,83,-99.99,,,-99.99,,2013-08-10 02:42:00,
2013-08-09 21:52:00,73.0,66.0,30.21,NE,50,1.0,-999.0,78,-99.99,,,-99.99,,2013-08-10 02:52:00,
2013-08-09 22:01:00,73.0,66.0,30.20,NE,42,2.0,-999.0,78,-99.99,,,-99.99,,2013-08-10 03:01:00,
2013-08-09 22:11:00,73.0,66.0,30.21,NNE,32,1.0,-999.0,78,-99.99,,,-99.99,,2013-08-10 03:11:00,
2013-08-09 22:21:00,73.0,66.0,30.21,NNE,24,0.0,-999.0,78,-99.99,,,-99.99,,2013-08-10 03:21:00,
2013-08-09 22:32:00,73.0,66.0,30.22,NNE,16,2.0,-999.0,78,-99.99,,,-99.99,,2013-08-10 03:32:00,
2013-08-09 22:42:00,73.0,66.0,30.22,NNE,31,1.0,-999.0,78,-99.99,,,-99.99,,2013-08-10 03:42:00,
2013-08-09 22:52:00,72.0,64.0,30.22,NE,51,1.0,-999.0,78,-99.99,,,-99.99,,2013-08-10 03:52:00,
2013-08-09 23:02:00,72.0,64.0,30.22,NNE,21,3.0,-999.0,78,-99.99,,,-99.99,,2013-08-10 04:02:00,
2013-08-09 23:12:00,72.0,64.0,30.23,NNE,21,1.0,-999.0,78,-99.99,,,-99.99,,2013-08-10 04:12:00,
2013-08-09 23:22:00,72.0,64.0,30.23,NE,39,1.0,-999.0,78,-99.99,,,-99.99,,2013-08-10 04:22:00,
2013-08-09 23:32:00,72.0,64.0,30.23,North,0,0.0,-999.0,78,-99.99,,,-99.99,,2013-08-10 04:32:00,
2013-08-09 23:43:00,70.0,63.0,30.24,ENE,70,0.0,-999.0,77,-99.99,,,-99.99,,2013-08-10 04:43:00,
2013-08-09 23:53:00,70.0,64.0,30.24,North,0,0.0,-999.0,82,-99.99,,,-99.99,,2013-08-10 04:53:00,